Lid_Strength_Index
5 7 9 8 13 15 17 15 14 12 12 10 7 9 12 12 10 12 9 11 11 10 -0 -0 -1 -1 -1 -1 -1 -1 -1 -1 -1 -1 -1 -1 -1 -1 -1 -1 -1 -1 -1 -1 -1 -1 -1 -1 -1
7 9 8 11 16 18 17 14 13 12 11 8 8 9 13 13 12 13 14 12 11 7 -0 -0 -1 -1 -1 -1 -1 -1 -1 -1 -1 -1 -1 -1 -1 -1 -1 -1 -1 -1 -1 -1 -1 -1 -1 -1 -1
10 8 10 13 17 18 16 14 13 12 11 10 10 14 16 17 14 15 14 12 11 9 8 -0 -0 -1 -2 -2 -1 -1 -1 -1 -1 -1 -1 -1 -1 -1 -2 -2 -1 -1 -1 -1 -1 -1 -1 -1 -1
10 8 10 14 17 16 16 14 13 12 11 11 14 17 16 15 15 14 13 13 12 11 9 8 2 -1 -1 -2 -2 -2 -1 -1 -1 -1 -1 -1 -1 -2 -2 -2 -2 -2 -2 -2 -2 -1 -1 -1 -1
8 10 14 16 16 15 15 14 12 13 12 14 11 13 15 13 13 13 13 12 12 10 9 8 4 3 1 -1 -1 -2 -2 -2 -1 -1 -1 -2 -2 -2 -2 -2 -2 -2 -2 -2 -2 -2 -1 -1 -1
10 11 15 16 16 14 14 14 12 13 12 13 13 13 15 13 12 12 12 13 11 10 8 6 4 4 3 2 1 -1 -1 -2 -2 -2 -2 -1 -1 -1 -1 -1 -2 -2 -2 -2 -2 -2 -1 -1 -1
11 13 14 15 14 14 14 15 15 15 14 15 14 13 15 13 12 11 12 11 10 9 7 6 4 3 3 3 4 2 0 -1 -1 -1 -1 -1 -1 -1 -1 -1 -2 -2 -2 -2 -2 -2 -2 -1 -1
10 11 15 17 14 14 15 15 16 16 15 15 15 17 18 14 12 11 11 11 10 10 9 7 5 4 4 4 5 5 4 2 1 0 1 0 0 0 -0 0 -1 -2 -2 -2 -2 -2 -2 -2 -2
9 13 15 16 14 15 16 16 16 16 17 17 15 16 15 13 12 12 12 12 11 10 10 9 7 5 5 5 5 4 5 4 4 4 2 2 0 -0 0 0 0 -1 -1 -1 -1 -2 -2 -1 -1
11 14 15 16 17 17 17 17 18 18 18 18 17 15 14 13 13 13 13 13 13 12 11 10 9 7 6 5 5 5 4 4 5 5 4 3 1 -0 -0 1 2 0 -0 -1 -1 -1 -1 0 -0
16 15 16 17 16 16 17 18 17 18 18 17 18 16 14 14 14 14 13 13 13 12 11 11 10 9 8 7 6 6 6 5 4 6 3 2 4 3 -0 -0 1 1 2 0 -0 -0 -0 1 2
16 16 16 15 16 17 18 16 17 17 16 15 15 15 15 14 14 14 14 13 12 12 11 11 10 10 10 8 8 7 7 6 6 5 4 6 6 6 6 4 0 0 0 1 1 1 1 1 2
17 17 17 16 16 17 16 17 17 17 15 15 15 14 14 14 14 14 13 13 12 12 11 11 11 11 10 9 8 8 8 7 6 6 5 5 4 6 5 5 5 2 1 1 1 1 2 3 2
17 17 18 17 17 16 17 18 17 16 15 16 15 15 15 14 14 14 14 13 13 12 12 11 11 11 10 10 9 9 8 8 7 6 5 5 5 5 5 6 5 6 5 5 2 2 2 3 3
17 18 17 18 17 17 17 18 17 17 16 15 15 15 15 14 13 14 14 13 13 12 12 12 11 10 11 11 10 9 8 7 7 7 5 6 5 4 5 4 5 5 5 5 5 3 1 2 2
19 19 20 18 17 17 18 18 17 16 16 16 16 16 15 15 14 14 13 13 12 13 12 11 10 11 11 11 10 9 8 8 8 7 5 5 4 3 4 4 4 3 5 5 6 5 3 3 3
21 22 21 19 17 18 18 18 16 16 16 17 17 16 16 15 14 14 13 13 12 12 12 12 11 11 11 10 10 9 8 8 7 6 6 5 4 3 4 4 4 4 4 5 6 5 6 5 3
22 22 21 21 19 19 19 18 16 15 16 16 17 17 16 16 14 14 13 13 12 12 12 12 11 11 11 10 10 9 9 8 7 7 6 6 5 5 4 4 4 5 5 5 4 6 5 5 6
21 22 23 21 19 19 21 20 16 16 17 17 16 16 16 16 15 14 13 13 13 12 12 12 12 11 11 11 11 11 10 9 8 7 7 6 6 5 5 6 5 5 6 5 4 5 7 6 5
21 22 22 20 19 20 20 19 17 17 17 18 17 17 17 17 15 14 14 14 13 13 13 12 12 11 11 10 10 10 10 9 8 7 6 6 6 6 6 6 6 6 6 6 6 5 5 6 5
22 22 23 22 20 21 22 21 19 18 18 17 17 17 16 16 15 15 14 14 14 13 13 12 12 11 11 10 9 9 9 9 9 8 8 7 7 6 6 6 6 6 6 7 6 5 6 7 6
21 20 21 21 22 23 22 22 19 20 18 17 17 17 16 16 15 15 14 14 14 13 13 12 11 11 10 10 10 11 11 11 9 8 8 7 7 7 6 6 6 7 6 7 7 6 6 6 7
21 20 21 21 23 24 23 24 20 20 18 17 17 17 16 16 15 15 14 14 13 13 13 13 12 11 11 10 10 10 10 10 9 8 8 8 8 7 7 7 7 7 6 6 6 7 6 6 6
19 21 21 22 23 25 23 23 20 19 18 18 17 16 16 16 15 15 14 14 14 13 13 13 12 12 11 11 10 11 11 10 9 9 9 9 9 8 8 8 8 7 7 7 7 6 6 6 6
20 21 24 25 26 23 23 24 19 18 17 17 17 16 16 16 16 15 15 14 14 13 13 13 12 12 11 11 11 10 10 10 10 10 10 11 10 9 9 8 8 8 8 8 7 7 7 6 7
22 22 23 27 25 24 21 23 18 17 17 17 16 16 16 16 15 15 14 14 14 14 14 13 13 13 11 11 10 10 10 10 10 10 10 10 10 9 8 7 7 7 7 8 7 7 7 7 6
21 23 21 24 27 26 23 21 17 16 17 17 16 17 16 16 15 15 14 14 14 14 14 14 13 12 11 11 11 10 10 10 10 9 9 8 8 8 8 7 7 6 6 6 7 8 8 7 7
20 19 23 24 27 28 23 22 19 17 18 18 17 17 16 16 15 15 14 14 14 14 14 14 13 12 12 11 11 11 11 10 10 10 9 8 8 8 9 9 8 7 7 6 5 6 8 9 8
21 22 23 23 22 25 26 22 18 17 17 16 16 16 16 16 15 15 15 15 15 15 15 14 13 13 12 12 11 12 11 11 11 10 9 9 9 9 9 9 8 8 8 7 7 5 6 8 8
20 21 20 24 25 25 23 23 17 17 17 17 16 16 16 16 15 16 15 15 15 15 15 14 13 13 13 12 12 12 11 11 11 10 10 10 11 11 11 10 10 9 8 7 7 7 5 6 7